Preview of NWS' New Version of Forecast
This preview is not operational and should not be used for support decisions.

Regional Weather Roundup (RWR)

Issued by National Weather Service (NWS)

                            
000
ASCA42 TJSJ 170910
RWRPR 
PUERTO RICO/U.S. VIRGIN ISLANDS HOURLY WEATHER ROUNDUP
NATIONAL WEATHER SERVICE SAN JUAN PR
500 AM AST MON JUN 17 2019

PRZ001>002-007>008-010-171000-
PUERTO RICO
  
CITY           SKY/WX    TMP DP  RH WIND       PRES   REMARKS
SAN JUAN LMM   PTCLDY    79  77  94 E6        30.06R                  
CEIBA          CLOUDY    82  75  78 E7        30.07S                  
$$

VIZ001>002-171000-
U.S. VIRGIN ISLANDS
  
CITY           SKY/WX    TMP DP  RH WIND       PRES   REMARKS
CHARLOTTE AMA  CLEAR     81  73  78 E6        30.06R                  
CHRISTIANSTED  PTCLDY    79  73  83 NE7       30.06S                  
$$

HOURLY WEATHER ROUNDUP FOR THE NEWS MEDIA
  
CITY           SKY/WX    TMP DP  RH WIND       PRES   REMARKS
ORLANDO        CLOUDY    75  72  90 E5        30.05R                  
NEW YORK       CLOUDY    70  70 100 NE3       29.89                   
NEWARK         FAIR      70  66  87 N6        29.89R                  
CHICAGO        CLOUDY    56  50  80 N10       29.93S                  
HARTFORD       FAIR      64  62  93 CALM      29.86R                  
BOSTON         FAIR      67  63  87 W8        29.86R                  
DALLAS         CLOUDY    69  64  84 SW3       29.86F                  
PHILADELPHIA   CLOUDY    68  68 100 SW6       29.91R                  
LOS ANGELES    CLOUDY    62  57  83 W5        29.87F                  
WASHINGTON DC  MOCLDY    72  66  81 CALM      29.93R